TimeCDT,TemperatureF,Dew PointF,Humidity,Sea Level PressureIn,VisibilityMPH,Wind Direction,Wind SpeedMPH,Gust SpeedMPH,PrecipitationIn,Events,Conditions,WindDirDegrees,DateUTC
12:54 AM,64.9,59.0,81,29.91,10.0,Calm,Calm,-,N/A,,Clear,0,2013-06-11 05:54:00
1:54 AM,63.0,57.9,84,29.92,10.0,WSW,4.6,-,N/A,,Clear,250,2013-06-11 06:54:00
2:54 AM,64.9,60.1,84,29.94,10.0,West,4.6,-,N/A,,Clear,270,2013-06-11 07:54:00
3:54 AM,64.9,59.0,81,29.94,10.0,West,4.6,-,N/A,,Clear,280,2013-06-11 08:54:00
4:54 AM,61.0,57.0,87,29.95,10.0,Calm,Calm,-,N/A,,Clear,0,2013-06-11 09:54:00
5:54 AM,60.1,57.0,90,29.96,10.0,Calm,Calm,-,N/A,,Clear,0,2013-06-11 10:54:00
6:54 AM,64.0,60.1,87,29.96,10.0,Calm,Calm,-,N/A,,Clear,0,2013-06-11 11:54:00
7:54 AM,70.0,61.0,73,29.95,10.0,East,3.5,-,N/A,,Clear,90,2013-06-11 12:54:00
8:54 AM,73.9,61.0,64,29.96,10.0,South,9.2,-,N/A,,Clear,190,2013-06-11 13:54:00
9:54 AM,78.1,61.0,56,29.95,10.0,South,11.5,-,N/A,,Clear,190,2013-06-11 14:54:00
10:54 AM,80.1,62.1,54,29.93,10.0,SSW,8.1,-,N/A,,Clear,200,2013-06-11 15:54:00
11:54 AM,82.9,63.0,51,29.91,10.0,SSE,9.2,-,N/A,,Partly Cloudy,160,2013-06-11 16:54:00
12:54 PM,84.0,63.0,49,29.90,10.0,South,11.5,-,N/A,,Scattered Clouds,170,2013-06-11 17:54:00
1:54 PM,82.0,64.9,56,29.93,10.0,SSW,12.7,-,N/A,,Mostly Cloudy,210,2013-06-11 18:54:00
2:25 PM,80.6,68.0,65,29.94,10.0,SE,3.5,-,0.00,,Scattered Clouds,140,2013-06-11 19:25:00
2:33 PM,82.4,68.0,62,29.93,10.0,South,9.2,-,0.00,,Partly Cloudy,190,2013-06-11 19:33:00
2:54 PM,82.0,66.9,60,29.91,10.0,SSW,13.8,-,0.00,,Clear,200,2013-06-11 19:54:00
3:54 PM,82.0,68.0,62,29.83,10.0,South,17.3,-,N/A,,Clear,190,2013-06-11 20:54:00
4:54 PM,82.9,69.1,63,29.83,10.0,SSW,18.4,27.6,N/A,,Clear,200,2013-06-11 21:54:00
5:54 PM,86.0,71.1,61,29.83,10.0,SW,15.0,-,N/A,,Clear,220,2013-06-11 22:54:00
6:54 PM,87.1,66.0,49,29.85,10.0,West,11.5,-,N/A,,Clear,260,2013-06-11 23:54:00
7:54 PM,84.9,66.0,53,29.85,10.0,WSW,9.2,-,N/A,,Clear,250,2013-06-12 00:54:00
8:54 PM,82.0,66.9,60,29.84,10.0,SW,9.2,-,N/A,,Clear,230,2013-06-12 01:54:00
9:54 PM,82.0,66.9,60,29.85,10.0,SW,11.5,-,N/A,,Clear,220,2013-06-12 02:54:00
10:54 PM,80.1,66.9,64,29.85,10.0,SW,11.5,-,N/A,,Clear,220,2013-06-12 03:54:00
11:54 PM,78.1,68.0,71,29.86,10.0,SSW,8.1,-,N/A,,Clear,210,2013-06-12 04:54:00